TimeCDT,TemperatureF,Dew PointF,Humidity,Sea Level PressureIn,VisibilityMPH,Wind Direction,Wind SpeedMPH,Gust SpeedMPH,PrecipitationIn,Events,Conditions,WindDirDegrees,DateUTC
12:53 AM,62.1,59.0,90,30.19,9.0,Calm,Calm,-,N/A,,Clear,0,2012-10-04 05:53:00
1:53 AM,61.0,59.0,93,30.19,7.0,Calm,Calm,-,N/A,,Clear,0,2012-10-04 06:53:00
2:53 AM,59.0,57.9,96,30.19,6.0,Calm,Calm,-,N/A,,Clear,0,2012-10-04 07:53:00
3:53 AM,59.0,57.9,96,30.20,6.0,Calm,Calm,-,N/A,,Clear,0,2012-10-04 08:53:00
4:53 AM,57.9,57.0,97,30.22,3.0,Calm,Calm,-,N/A,,Clear,0,2012-10-04 09:53:00
5:53 AM,57.9,57.0,97,30.24,6.0,Calm,Calm,-,N/A,,Clear,0,2012-10-04 10:53:00
6:53 AM,57.0,55.9,96,30.25,6.0,Calm,Calm,-,N/A,,Clear,0,2012-10-04 11:53:00
7:53 AM,62.1,59.0,90,30.27,7.0,North,3.5,-,N/A,,Clear,10,2012-10-04 12:53:00
8:53 AM,66.9,61.0,81,30.28,10.0,Calm,Calm,-,N/A,,Clear,0,2012-10-04 13:53:00
9:53 AM,71.1,61.0,70,30.29,10.0,Calm,Calm,-,N/A,,Clear,0,2012-10-04 14:53:00
10:53 AM,75.0,60.1,60,30.28,10.0,Calm,Calm,-,N/A,,Clear,0,2012-10-04 15:53:00
11:53 AM,79.0,59.0,50,30.26,10.0,NE,4.6,-,N/A,,Clear,40,2012-10-04 16:53:00
12:53 PM,81.0,57.9,45,30.25,10.0,Variable,3.5,-,N/A,,Clear,0,2012-10-04 17:53:00
1:53 PM,82.0,60.1,47,30.22,10.0,East,5.8,-,N/A,,Clear,80,2012-10-04 18:53:00
2:53 PM,82.9,60.1,46,30.20,10.0,Calm,Calm,-,N/A,,Partly Cloudy,0,2012-10-04 19:53:00
3:53 PM,82.0,59.0,45,30.20,10.0,ESE,6.9,-,N/A,,Clear,120,2012-10-04 20:53:00
4:53 PM,82.0,60.1,47,30.19,10.0,Calm,Calm,-,N/A,,Clear,0,2012-10-04 21:53:00
5:53 PM,78.1,63.0,60,30.18,10.0,Calm,Calm,-,N/A,,Partly Cloudy,0,2012-10-04 22:53:00
6:53 PM,71.1,64.9,81,30.18,10.0,Calm,Calm,-,N/A,,Clear,0,2012-10-04 23:53:00
8:53 PM,66.0,64.0,93,30.20,7.0,Calm,Calm,-,N/A,,Clear,0,2012-10-05 01:53:00
9:53 PM,66.0,64.0,93,30.20,6.0,Calm,Calm,-,N/A,,Clear,0,2012-10-05 02:53:00
10:42 PM,64.4,62.6,94,30.21,1.5,Calm,Calm,-,N/A,,Clear,0,2012-10-05 03:42:00
10:53 PM,64.0,63.0,96,30.20,4.0,Calm,Calm,-,N/A,,Clear,0,2012-10-05 03:53:00
11:53 PM,63.0,61.0,93,30.20,5.0,Calm,Calm,-,N/A,,Clear,0,2012-10-05 04:53:00